Evergreen, AL

10:47 AM CST on November 18, 2017 (GMT -0600)
Middleton

Weather History for KGZH - November, 2012

Change the Weather History Date:

Thursday, November 15, 2012

  Actual Average (KPRN) Record (KPRN)
Temperature  
Mean Temperature 48 °F -  
Max Temperature 55 °F 68 °F 85 °F (1955)
Min Temperature 41 °F 44 °F 19 °F (1969)
Degree Days  
Heating Degree Days 17    
Moisture  
Dew Point 45 °F    
Average Humidity 82    
Maximum Humidity 93    
Minimum Humidity 67    
Precipitation  
Precipitation 0.00 in - - ()
Sea Level Pressure  
Sea Level Pressure 30.25 in    
Wind  
Wind Speed 2 mph (NE)    
Max Wind Speed 10 mph    
Max Gust Speed -    
Visibility 8 miles    
Events      
Averages and records for this station are not official NWS values.
T = Trace of Precipitation, MM = Missing Value Source: NWS Daily Summary

Daily Weather History Graph

Daily Weather History Graph

Search for Another Location

Airport or City:

Trip Planner

Search our weather history database for the weather conditions in past years. The results will help you decide how hot, cold, wet, or windy it might be!

Date:

Astronomy

Nov. 15, 2012 Rise Set
Actual Time 6:16 AM CST 4:49 PM CST
Civil Twilight 5:50 AM CST 5:14 PM CST
Nautical Twilight 5:21 AM CST 5:44 PM CST
Astronomical Twilight 4:52 AM CST 6:13 PM CST
Moon 8:07 AM CST (11/15) 6:44 PM CST (11/15)
Length of Visible Light 11h 24m
Length of Day
10h 32m
Waxing Crescent, 5% of the Moon is Illuminated
Nov 15
Waxing Crescent
Nov 20
First Quarter
Nov 28
Full
Dec 6
Last Quarter
Dec 13
New

Hourly Weather History & Observations

Time (CST) Temp. Dew Point Humidity Pressure Visibility Wind Dir Wind Speed Gust Speed Precip Events Conditions
12:43 AM 53.6 °F 48.2 °F 82% 30.24 in 9.0 mi Calm Calm - N/A   Overcast
12:53 AM 53.1 °F 48.9 °F 86% 30.24 in 9.0 mi Calm Calm - N/A   Overcast
1:53 AM 52.0 °F 48.0 °F 86% 30.23 in 9.0 mi Calm Calm - N/A   Overcast
2:14 AM 51.8 °F 48.2 °F 88% 30.24 in 9.0 mi Calm Calm - N/A   Overcast
2:19 AM 51.8 °F 48.2 °F 88% 30.24 in 9.0 mi Calm Calm - N/A   Overcast
2:53 AM 52.0 °F 48.0 °F 86% 30.23 in 8.0 mi NE 4.6 mph - N/A   Overcast
3:04 AM 51.8 °F 48.2 °F 88% 30.23 in 8.0 mi NE 4.6 mph - N/A   Overcast
3:53 AM 51.1 °F 46.9 °F 86% 30.23 in 8.0 mi NNE 4.6 mph - N/A   Overcast
4:53 AM 50.0 °F 46.9 °F 89% 30.24 in 7.0 mi Calm Calm - N/A   Overcast
5:18 AM 50.0 °F 46.4 °F 87% 30.24 in 6.0 mi Calm Calm - N/A   Overcast
5:29 AM 50.0 °F 46.4 °F 87% 30.24 in 6.0 mi Calm Calm - N/A   Overcast
5:53 AM 50.0 °F 46.9 °F 89% 30.24 in 7.0 mi Calm Calm - N/A   Overcast
6:07 AM 50.0 °F 46.4 °F 87% 30.25 in 7.0 mi Calm Calm - N/A   Overcast
6:53 AM 50.0 °F 46.9 °F 89% 30.26 in 5.0 mi Calm Calm - N/A   Overcast
7:53 AM 50.0 °F 46.9 °F 89% 30.28 in 5.0 mi NNW 3.5 mph - N/A   Mostly Cloudy
8:11 AM 51.8 °F 46.4 °F 82% 30.28 in 7.0 mi North 4.6 mph - N/A   Mostly Cloudy
8:26 AM 51.8 °F 46.4 °F 82% 30.28 in 7.0 mi NNE 4.6 mph - N/A   Scattered Clouds
8:53 AM 54.0 °F 46.0 °F 75% 30.29 in 10.0 mi NE 9.2 mph - N/A   Mostly Cloudy
9:53 AM 55.0 °F 46.0 °F 72% 30.28 in 10.0 mi NNE 10.4 mph - N/A   Overcast
10:53 AM 55.0 °F 44.1 °F 67% 30.28 in 10.0 mi NE 8.1 mph - N/A   Overcast
11:53 AM 55.0 °F 44.1 °F 67% 30.26 in 10.0 mi NE 8.1 mph - N/A   Overcast
12:53 PM 54.0 °F 44.1 °F 69% 30.25 in 10.0 mi NNE 5.8 mph - N/A   Overcast
1:53 PM 54.0 °F 44.1 °F 69% 30.25 in 10.0 mi Variable 6.9 mph - N/A   Overcast
2:37 PM 55.4 °F 44.6 °F 67% 30.24 in 10.0 mi ENE 10.4 mph - N/A   Scattered Clouds
2:53 PM 54.0 °F 44.1 °F 69% 30.23 in 10.0 mi ENE 5.8 mph - N/A   Partly Cloudy
3:53 PM 54.0 °F 44.1 °F 69% 30.24 in 10.0 mi East 5.8 mph - N/A   Clear
4:53 PM 51.1 °F 44.1 °F 77% 30.24 in 10.0 mi ENE 3.5 mph - N/A   Clear
5:53 PM 46.0 °F 43.0 °F 89% 30.25 in 10.0 mi Calm Calm - N/A   Clear
6:53 PM 44.1 °F 42.1 °F 93% 30.26 in 4.0 mi Calm Calm - N/A   Clear
7:53 PM 43.0 °F 39.9 °F 89% 30.27 in 4.0 mi Calm Calm - N/A   Clear
8:53 PM 41.0 °F 39.0 °F 93% 30.27 in 5.0 mi Calm Calm - N/A   Clear
9:53 PM 41.0 °F 37.9 °F 89% 30.28 in 5.0 mi Calm Calm - N/A   Clear
10:53 PM 41.0 °F 37.9 °F 89% 30.28 in 5.0 mi Calm Calm - N/A   Clear
11:53 PM 41.0 °F 37.9 °F 89% 30.27 in 5.0 mi Calm Calm - N/A   Clear